Time,TemperatureF,DewpointF,PressureIn,WindDirection,WindDirectionDegrees,WindSpeedMPH,WindSpeedGustMPH,Humidity,HourlyPrecipIn,Conditions,Clouds,dailyrainin,SoftwareType,DateUTC
2013-02-08 00:01:00,43.0,43.0,-100.00,SSW,206,4.0,7.0,99,-99.99,,,-99.99,,2013-02-08 05:01:00,
2013-02-08 00:11:00,43.0,43.0,-100.00,SSW,196,5.0,10.0,99,-99.99,,,-99.99,,2013-02-08 05:11:00,
2013-02-08 00:22:00,43.0,43.0,-100.00,WSW,242,5.0,5.0,99,-99.99,,,-99.99,,2013-02-08 05:22:00,
2013-02-08 00:31:00,42.0,42.0,-100.00,SSW,211,2.0,5.0,99,-99.99,,,-99.99,,2013-02-08 05:31:00,
2013-02-08 00:41:00,42.0,42.0,-100.00,SSW,211,2.0,5.0,99,-99.99,,,-99.99,,2013-02-08 05:41:00,
2013-02-08 00:52:00,42.0,42.0,-100.00,SW,215,3.0,5.0,99,-99.99,,,-99.99,,2013-02-08 05:52:00,
2013-02-08 01:01:00,42.0,42.0,-100.00,SW,215,3.0,8.0,99,-99.99,,,-99.99,,2013-02-08 06:01:00,
2013-02-08 01:11:00,42.0,42.0,-100.00,SW,224,3.0,8.0,99,-99.99,,,-99.99,,2013-02-08 06:11:00,
2013-02-08 01:21:00,42.0,42.0,-100.00,SSW,207,4.0,8.0,99,-99.99,,,-99.99,,2013-02-08 06:21:00,
2013-02-08 01:31:00,42.0,42.0,-100.00,South,178,4.0,8.0,99,-99.99,,,-99.99,,2013-02-08 06:31:00,
2013-02-08 01:41:00,41.0,41.0,-100.00,South,186,5.0,9.0,99,-99.99,,,-99.99,,2013-02-08 06:41:00,
2013-02-08 01:51:00,41.0,41.0,-100.00,South,179,7.0,13.0,99,-99.99,,,-99.99,,2013-02-08 06:51:00,
2013-02-08 02:01:00,41.0,41.0,-100.00,South,174,9.0,10.0,99,-99.99,,,-99.99,,2013-02-08 07:01:00,
2013-02-08 02:11:00,41.0,41.0,-100.00,South,170,7.0,12.0,99,-99.99,,,-99.99,,2013-02-08 07:11:00,
2013-02-08 02:21:00,41.0,41.0,-100.00,South,186,8.0,9.0,99,-99.99,,,-99.99,,2013-02-08 07:21:00,
2013-02-08 02:31:00,40.0,40.0,-100.00,SSW,197,7.0,9.0,99,-99.99,,,-99.99,,2013-02-08 07:31:00,
2013-02-08 02:42:00,41.0,40.0,-100.00,SW,216,6.0,10.0,98,-99.99,,,-99.99,,2013-02-08 07:42:00,
2013-02-08 02:51:00,40.0,39.0,-100.00,SW,219,5.0,9.0,98,-99.99,,,-99.99,,2013-02-08 07:51:00,
2013-02-08 03:01:00,40.0,39.0,-100.00,SW,220,5.0,9.0,96,-99.99,,,-99.99,,2013-02-08 08:01:00,
2013-02-08 03:11:00,40.0,38.0,-100.00,SW,221,5.0,10.0,92,-99.99,,,-99.99,,2013-02-08 08:11:00,
2013-02-08 03:21:00,40.0,37.0,-100.00,SSW,208,5.0,8.0,88,-99.99,,,-99.99,,2013-02-08 08:21:00,
2013-02-08 03:32:00,40.0,37.0,-100.00,South,188,4.0,9.0,89,-99.99,,,-99.99,,2013-02-08 08:32:00,
2013-02-08 03:41:00,40.0,37.0,-100.00,SSW,192,5.0,9.0,89,-99.99,,,-99.99,,2013-02-08 08:41:00,
2013-02-08 03:52:00,40.0,38.0,-100.00,SW,231,6.0,8.0,94,-99.99,,,-99.99,,2013-02-08 08:52:00,
2013-02-08 04:02:00,40.0,38.0,-100.00,SW,231,6.0,8.0,94,-99.99,,,-99.99,,2013-02-08 09:02:00,
2013-02-08 04:11:00,39.0,38.0,-100.00,SW,225,4.0,11.0,96,-99.99,,,-99.99,,2013-02-08 09:11:00,
2013-02-08 04:21:00,39.0,38.0,-100.00,SW,222,4.0,9.0,97,-99.99,,,-99.99,,2013-02-08 09:21:00,
2013-02-08 04:31:00,39.0,38.0,-100.00,SW,218,5.0,8.0,97,-99.99,,,-99.99,,2013-02-08 09:31:00,
2013-02-08 04:42:00,39.0,38.0,-100.00,SW,228,4.0,7.0,97,-99.99,,,-99.99,,2013-02-08 09:42:00,
2013-02-08 04:51:00,39.0,38.0,-100.00,SW,221,3.0,6.0,97,-99.99,,,-99.99,,2013-02-08 09:51:00,
2013-02-08 05:01:00,39.0,38.0,-100.00,South,182,3.0,4.0,96,-99.99,,,-99.99,,2013-02-08 10:01:00,
2013-02-08 05:11:00,39.0,38.0,-100.00,SSW,211,2.0,6.0,97,-99.99,,,-99.99,,2013-02-08 10:11:00,
2013-02-08 05:22:00,39.0,38.0,-100.00,South,190,3.0,5.0,96,-99.99,,,-99.99,,2013-02-08 10:22:00,
2013-02-08 05:31:00,39.0,38.0,-100.00,SSW,208,3.0,5.0,96,-99.99,,,-99.99,,2013-02-08 10:31:00,
2013-02-08 05:41:00,39.0,38.0,-100.00,SW,234,2.0,5.0,96,-99.99,,,-99.99,,2013-02-08 10:41:00,
2013-02-08 05:51:00,39.0,38.0,-100.00,SW,236,2.0,7.0,96,-99.99,,,-99.99,,2013-02-08 10:51:00,
2013-02-08 06:01:00,39.0,38.0,-100.00,SSW,207,3.0,9.0,96,-99.99,,,-99.99,,2013-02-08 11:01:00,
2013-02-08 06:11:00,39.0,38.0,-100.00,SSW,207,4.0,12.0,95,-99.99,,,-99.99,,2013-02-08 11:11:00,
2013-02-08 06:21:00,39.0,37.0,-100.00,SSW,206,5.0,9.0,93,-99.99,,,-99.99,,2013-02-08 11:21:00,
2013-02-08 06:32:00,39.0,37.0,-100.00,SW,217,5.0,8.0,93,-99.99,,,-99.99,,2013-02-08 11:32:00,
2013-02-08 06:41:00,39.0,37.0,-100.00,SSW,211,4.0,10.0,94,-99.99,,,-99.99,,2013-02-08 11:41:00,
2013-02-08 06:52:00,39.0,38.0,-100.00,SW,219,5.0,13.0,95,-99.99,,,-99.99,,2013-02-08 11:52:00,
2013-02-08 07:01:00,39.0,38.0,-100.00,SW,220,6.0,10.0,96,-99.99,,,-99.99,,2013-02-08 12:01:00,
2013-02-08 07:11:00,39.0,38.0,-100.00,SW,223,5.0,9.0,96,-99.99,,,-99.99,,2013-02-08 12:11:00,
2013-02-08 07:22:00,38.0,37.0,-100.00,SSW,211,4.0,9.0,97,-99.99,,,-99.99,,2013-02-08 12:22:00,
2013-02-08 07:32:00,38.0,37.0,-100.00,SSW,210,5.0,11.0,97,-99.99,,,-99.99,,2013-02-08 12:32:00,
2013-02-08 07:42:00,38.0,37.0,-100.00,SW,215,6.0,12.0,96,-99.99,,,-99.99,,2013-02-08 12:42:00,
2013-02-08 07:52:00,39.0,38.0,-100.00,SSW,213,6.0,11.0,96,-99.99,,,-99.99,,2013-02-08 12:52:00,
2013-02-08 08:01:00,39.0,38.0,-100.00,SW,236,5.0,9.0,96,-99.99,,,-99.99,,2013-02-08 13:01:00,
2013-02-08 08:11:00,39.0,38.0,-100.00,WSW,246,4.0,10.0,96,-99.99,,,-99.99,,2013-02-08 13:11:00,
2013-02-08 08:21:00,39.0,38.0,-100.00,SW,234,5.0,14.0,96,-99.99,,,-99.99,,2013-02-08 13:21:00,
2013-02-08 08:32:00,39.0,38.0,-100.00,SW,214,5.0,12.0,95,-99.99,,,-99.99,,2013-02-08 13:32:00,
2013-02-08 08:42:00,39.0,38.0,-100.00,SW,214,5.0,12.0,95,-99.99,,,-99.99,,2013-02-08 13:42:00,
2013-02-08 08:51:00,38.0,36.0,-100.00,SW,219,7.0,20.0,91,-99.99,,,-99.99,,2013-02-08 13:51:00,
2013-02-08 09:01:00,38.0,35.0,-100.00,WSW,250,8.0,13.0,90,-99.99,,,-99.99,,2013-02-08 14:01:00,
2013-02-08 09:11:00,38.0,36.0,-100.00,WSW,238,5.0,14.0,91,-99.99,,,-99.99,,2013-02-08 14:11:00,
2013-02-08 09:21:00,38.0,36.0,-100.00,WNW,285,6.0,13.0,92,-99.99,,,-99.99,,2013-02-08 14:21:00,
2013-02-08 09:32:00,37.0,35.0,-100.00,West,279,5.0,12.0,93,-99.99,,,-99.99,,2013-02-08 14:32:00,
2013-02-08 09:41:00,37.0,35.0,-100.00,WSW,246,5.0,7.0,94,-99.99,,,-99.99,,2013-02-08 14:41:00,
2013-02-08 09:52:00,37.0,35.0,-100.00,WSW,237,3.0,9.0,94,-99.99,,,-99.99,,2013-02-08 14:52:00,
2013-02-08 10:01:00,37.0,35.0,-100.00,SW,220,3.0,14.0,93,-99.99,,,-99.99,,2013-02-08 15:01:00,
2013-02-08 10:11:00,37.0,35.0,-100.00,SW,216,5.0,14.0,92,-99.99,,,-99.99,,2013-02-08 15:11:00,
2013-02-08 10:21:00,37.0,35.0,-100.00,SW,219,7.0,11.0,92,-99.99,,,-99.99,,2013-02-08 15:21:00,
2013-02-08 10:31:00,37.0,35.0,-100.00,SW,229,5.0,11.0,92,-99.99,,,-99.99,,2013-02-08 15:31:00,
2013-02-08 10:41:00,37.0,35.0,-100.00,SW,217,4.0,11.0,92,-99.99,,,-99.99,,2013-02-08 15:41:00,
2013-02-08 10:51:00,37.0,35.0,-100.00,SW,216,5.0,13.0,92,-99.99,,,-99.99,,2013-02-08 15:51:00,
2013-02-08 11:01:00,37.0,35.0,-100.00,SW,219,7.0,13.0,92,-99.99,,,-99.99,,2013-02-08 16:01:00,
2013-02-08 11:11:00,36.0,34.0,-100.00,WSW,239,8.0,14.0,91,-99.99,,,-99.99,,2013-02-08 16:11:00,
2013-02-08 11:21:00,35.0,33.0,-100.00,West,281,5.0,8.0,94,-99.99,,,-99.99,,2013-02-08 16:21:00,
2013-02-08 11:32:00,36.0,35.0,-100.00,WSW,238,3.0,8.0,96,-99.99,,,-99.99,,2013-02-08 16:32:00,
2013-02-08 11:41:00,36.0,35.0,-100.00,WSW,239,3.0,8.0,96,-99.99,,,-99.99,,2013-02-08 16:41:00,
2013-02-08 11:51:00,37.0,36.0,-100.00,WSW,239,3.0,14.0,96,-99.99,,,-99.99,,2013-02-08 16:51:00,
2013-02-08 12:02:00,38.0,37.0,-100.00,SW,215,4.0,14.0,95,-99.99,,,-99.99,,2013-02-08 17:02:00,
2013-02-08 12:11:00,37.0,35.0,-100.00,SW,215,7.0,15.0,94,-99.99,,,-99.99,,2013-02-08 17:11:00,
2013-02-08 12:21:00,37.0,35.0,-100.00,SW,217,8.0,11.0,94,-99.99,,,-99.99,,2013-02-08 17:21:00,
2013-02-08 12:32:00,37.0,35.0,-100.00,SW,214,5.0,12.0,94,-99.99,,,-99.99,,2013-02-08 17:32:00,
2013-02-08 12:42:00,37.0,35.0,-100.00,SSW,213,7.0,20.0,94,-99.99,,,-99.99,,2013-02-08 17:42:00,
2013-02-08 12:52:00,36.0,34.0,-100.00,SW,216,9.0,14.0,92,-99.99,,,-99.99,,2013-02-08 17:52:00,
2013-02-08 13:01:00,36.0,34.0,-100.00,SW,229,7.0,7.0,93,-99.99,,,-99.99,,2013-02-08 18:01:00,
2013-02-08 13:11:00,38.0,36.0,-100.00,SW,220,3.0,9.0,94,-99.99,,,-99.99,,2013-02-08 18:11:00,
2013-02-08 13:23:00,39.0,37.0,-100.00,SW,217,4.0,9.0,93,-99.99,,,-99.99,,2013-02-08 18:23:00,
2013-02-08 13:33:00,39.0,36.0,-100.00,SSW,210,5.0,18.0,90,-99.99,,,-99.99,,2013-02-08 18:33:00,
2013-02-08 13:42:00,37.0,35.0,-100.00,SW,219,8.0,17.0,92,-99.99,,,-99.99,,2013-02-08 18:42:00,
2013-02-08 13:52:00,37.0,36.0,-100.00,SW,225,9.0,18.0,95,-99.99,,,-99.99,,2013-02-08 18:52:00,
2013-02-08 14:01:00,37.0,36.0,-100.00,SW,222,8.0,17.0,96,-99.99,,,-99.99,,2013-02-08 19:01:00,
2013-02-08 14:11:00,38.0,37.0,-100.00,SW,228,7.0,13.0,95,-99.99,,,-99.99,,2013-02-08 19:11:00,
2013-02-08 14:22:00,39.0,37.0,-100.00,SSW,210,6.0,15.0,93,-99.99,,,-99.99,,2013-02-08 19:22:00,
2013-02-08 14:32:00,40.0,37.0,-100.00,SW,219,8.0,15.0,89,-99.99,,,-99.99,,2013-02-08 19:32:00,
2013-02-08 14:41:00,40.0,36.0,-100.00,SW,216,7.0,19.0,87,-99.99,,,-99.99,,2013-02-08 19:41:00,
2013-02-08 14:52:00,41.0,37.0,-100.00,SW,215,9.0,17.0,85,-99.99,,,-99.99,,2013-02-08 19:52:00,
2013-02-08 15:01:00,41.0,37.0,-100.00,SW,215,9.0,17.0,85,-99.99,,,-99.99,,2013-02-08 20:01:00,
2013-02-08 15:11:00,38.0,35.0,-100.00,SW,226,10.0,19.0,89,-99.99,,,-99.99,,2013-02-08 20:11:00,
2013-02-08 15:21:00,38.0,36.0,-100.00,SW,232,8.0,12.0,93,-99.99,,,-99.99,,2013-02-08 20:21:00,
2013-02-08 15:31:00,38.0,36.0,-100.00,West,274,5.0,18.0,93,-99.99,,,-99.99,,2013-02-08 20:31:00,
2013-02-08 15:41:00,34.0,33.0,-100.00,NW,313,8.0,16.0,95,-99.99,,,-99.99,,2013-02-08 20:41:00,
2013-02-08 15:52:00,34.0,33.0,-100.00,West,273,9.0,12.0,97,-99.99,,,-99.99,,2013-02-08 20:52:00,
2013-02-08 16:01:00,34.0,33.0,-100.00,WSW,240,4.0,11.0,97,-99.99,,,-99.99,,2013-02-08 21:01:00,
2013-02-08 16:11:00,35.0,34.0,-100.00,WSW,239,5.0,10.0,98,-99.99,,,-99.99,,2013-02-08 21:11:00,
2013-02-08 16:21:00,36.0,35.0,-100.00,SSW,213,5.0,18.0,98,-99.99,,,-99.99,,2013-02-08 21:21:00,
2013-02-08 16:32:00,36.0,35.0,-100.00,SW,217,9.0,13.0,98,-99.99,,,-99.99,,2013-02-08 21:32:00,
2013-02-08 16:41:00,37.0,36.0,-100.00,SSW,212,7.0,15.0,98,-99.99,,,-99.99,,2013-02-08 21:41:00,
2013-02-08 16:52:00,37.0,36.0,-100.00,SSW,213,8.0,17.0,98,-99.99,,,-99.99,,2013-02-08 21:52:00,
2013-02-08 17:01:00,37.0,36.0,-100.00,SSW,213,8.0,17.0,98,-99.99,,,-99.99,,2013-02-08 22:01:00,
2013-02-08 17:11:00,38.0,37.0,-100.00,SSW,211,9.0,18.0,97,-99.99,,,-99.99,,2013-02-08 22:11:00,
2013-02-08 17:21:00,38.0,37.0,-100.00,SSW,213,11.0,21.0,97,-99.99,,,-99.99,,2013-02-08 22:21:00,
2013-02-08 17:31:00,38.0,37.0,-100.00,SW,215,10.0,17.0,96,-99.99,,,-99.99,,2013-02-08 22:31:00,
2013-02-08 17:41:00,37.0,36.0,-100.00,WSW,252,10.0,22.0,95,-99.99,,,-99.99,,2013-02-08 22:41:00,
2013-02-08 17:51:00,34.0,33.0,-100.00,WNW,287,8.0,18.0,96,-99.99,,,-99.99,,2013-02-08 22:51:00,
2013-02-08 18:01:00,34.0,33.0,-100.00,WSW,239,8.0,18.0,97,-99.99,,,-99.99,,2013-02-08 23:01:00,
2013-02-08 18:11:00,35.0,34.0,-100.00,SW,214,6.0,15.0,98,-99.99,,,-99.99,,2013-02-08 23:11:00,
2013-02-08 18:21:00,36.0,35.0,-100.00,SW,217,7.0,18.0,98,-99.99,,,-99.99,,2013-02-08 23:21:00,
2013-02-08 18:31:00,37.0,36.0,-100.00,SW,216,8.0,15.0,97,-99.99,,,-99.99,,2013-02-08 23:31:00,
2013-02-08 18:41:00,38.0,37.0,-100.00,SW,229,8.0,13.0,96,-99.99,,,-99.99,,2013-02-08 23:41:00,
2013-02-08 18:52:00,38.0,37.0,-100.00,SW,223,6.0,13.0,96,-99.99,,,-99.99,,2013-02-08 23:52:00,
2013-02-08 19:01:00,38.0,37.0,-100.00,SW,229,6.0,17.0,96,-99.99,,,-99.99,,2013-02-09 00:01:00,
2013-02-08 19:11:00,38.0,37.0,-100.00,SW,218,6.0,14.0,96,-99.99,,,-99.99,,2013-02-09 00:11:00,
2013-02-08 19:21:00,37.0,36.0,-100.00,SW,227,6.0,15.0,96,-99.99,,,-99.99,,2013-02-09 00:21:00,
2013-02-08 19:31:00,37.0,36.0,-100.00,WSW,242,7.0,17.0,95,-99.99,,,-99.99,,2013-02-09 00:31:00,
2013-02-08 19:41:00,37.0,36.0,-100.00,WSW,242,7.0,17.0,95,-99.99,,,-99.99,,2013-02-09 00:41:00,
2013-02-08 19:52:00,37.0,36.0,-100.00,WSW,254,6.0,13.0,96,-99.99,,,-99.99,,2013-02-09 00:52:00,
2013-02-08 20:01:00,37.0,36.0,-100.00,WSW,254,5.0,14.0,97,-99.99,,,-99.99,,2013-02-09 01:01:00,
2013-02-08 20:11:00,37.0,36.0,-100.00,SW,234,4.0,12.0,97,-99.99,,,-99.99,,2013-02-09 01:11:00,
2013-02-08 20:21:00,37.0,36.0,-100.00,SW,222,5.0,13.0,97,-99.99,,,-99.99,,2013-02-09 01:21:00,
2013-02-08 20:31:00,37.0,36.0,-100.00,SW,214,7.0,18.0,96,-99.99,,,-99.99,,2013-02-09 01:31:00,
2013-02-08 20:41:00,35.0,34.0,-100.00,SW,234,9.0,12.0,95,-99.99,,,-99.99,,2013-02-09 01:41:00,
2013-02-08 20:52:00,34.0,33.0,-100.00,SW,230,6.0,12.0,96,-99.99,,,-99.99,,2013-02-09 01:52:00,
2013-02-08 21:01:00,34.0,33.0,-100.00,SW,218,5.0,14.0,97,-99.99,,,-99.99,,2013-02-09 02:01:00,
2013-02-08 21:11:00,35.0,34.0,-100.00,SW,236,6.0,10.0,98,-99.99,,,-99.99,,2013-02-09 02:11:00,
2013-02-08 21:21:00,35.0,34.0,-100.00,SW,233,4.0,11.0,98,-99.99,,,-99.99,,2013-02-09 02:21:00,
2013-02-08 21:31:00,36.0,35.0,-100.00,WSW,247,5.0,11.0,98,-99.99,,,-99.99,,2013-02-09 02:31:00,
2013-02-08 21:41:00,36.0,35.0,-100.00,SW,224,5.0,12.0,98,-99.99,,,-99.99,,2013-02-09 02:41:00,
2013-02-08 21:52:00,36.0,35.0,-100.00,SW,232,4.0,19.0,98,-99.99,,,-99.99,,2013-02-09 02:52:00,
2013-02-08 22:01:00,36.0,36.0,-100.00,SW,236,7.0,9.0,99,-99.99,,,-99.99,,2013-02-09 03:01:00,
2013-02-08 22:11:00,35.0,35.0,-100.00,WSW,245,4.0,13.0,99,-99.99,,,-99.99,,2013-02-09 03:11:00,
2013-02-08 22:21:00,34.0,34.0,-100.00,West,279,4.0,13.0,98,-99.99,,,-99.99,,2013-02-09 03:21:00,
2013-02-08 22:31:00,32.0,32.0,-100.00,NW,309,7.0,13.0,99,-99.99,,,-99.99,,2013-02-09 03:31:00,
2013-02-08 22:41:00,32.0,32.0,-100.00,WNW,294,6.0,10.0,99,-99.99,,,-99.99,,2013-02-09 03:41:00,
2013-02-08 22:52:00,33.0,33.0,-100.00,WSW,252,3.0,12.0,99,-99.99,,,-99.99,,2013-02-09 03:52:00,
2013-02-08 23:02:00,33.0,33.0,-100.00,West,269,5.0,11.0,99,-99.99,,,-99.99,,2013-02-09 04:02:00,
2013-02-08 23:11:00,33.0,33.0,-100.00,West,274,5.0,10.0,99,-99.99,,,-99.99,,2013-02-09 04:11:00,
2013-02-08 23:22:00,34.0,34.0,-100.00,WNW,288,4.0,8.0,99,-99.99,,,-99.99,,2013-02-09 04:22:00,
2013-02-08 23:31:00,34.0,34.0,-100.00,West,269,3.0,9.0,99,-99.99,,,-99.99,,2013-02-09 04:31:00,
2013-02-08 23:42:00,34.0,34.0,-100.00,West,277,3.0,10.0,99,-99.99,,,-99.99,,2013-02-09 04:42:00,
2013-02-08 23:51:00,34.0,34.0,-100.00,WSW,257,5.0,10.0,99,-99.99,,,-99.99,,2013-02-09 04:51:00,